TimeCDT,TemperatureF,Dew PointF,Humidity,Sea Level PressureIn,VisibilityMPH,Wind Direction,Wind SpeedMPH,Gust SpeedMPH,PrecipitationIn,Events,Conditions,WindDirDegrees,DateUTC
12:15 AM,38.3,35.4,89,29.60,10.0,Calm,Calm,-,N/A,,Scattered Clouds,0,2013-11-01 05:15:00
12:35 AM,37.9,35.6,91,29.60,10.0,Calm,Calm,-,N/A,,Clear,0,2013-11-01 05:35:00
12:55 AM,37.6,35.6,93,29.61,10.0,Calm,Calm,-,N/A,,Clear,0,2013-11-01 05:55:00
1:15 AM,37.0,35.4,94,29.61,10.0,Calm,Calm,-,N/A,,Clear,0,2013-11-01 06:15:00
1:35 AM,37.2,34.9,91,29.61,10.0,Calm,Calm,-,N/A,,Clear,0,2013-11-01 06:35:00
1:55 AM,37.2,34.9,91,29.62,10.0,Calm,Calm,-,N/A,,Clear,0,2013-11-01 06:55:00
2:15 AM,36.5,34.9,94,29.62,10.0,Calm,Calm,-,N/A,,Clear,0,2013-11-01 07:15:00
2:35 AM,36.5,34.9,94,29.63,10.0,Calm,Calm,-,N/A,,Clear,0,2013-11-01 07:35:00
2:55 AM,36.5,34.7,93,29.63,10.0,Calm,Calm,-,N/A,,Clear,0,2013-11-01 07:55:00
3:15 AM,37.4,35.1,91,29.64,10.0,Calm,Calm,-,N/A,,Clear,0,2013-11-01 08:15:00
3:35 AM,36.3,34.9,95,29.64,10.0,Calm,Calm,-,N/A,,Clear,0,2013-11-01 08:35:00
3:55 AM,36.5,35.1,95,29.65,10.0,Calm,Calm,-,N/A,,Clear,0,2013-11-01 08:55:00
4:15 AM,36.0,35.1,97,29.65,10.0,Calm,Calm,-,N/A,,Clear,0,2013-11-01 09:15:00
4:35 AM,36.0,34.2,93,29.66,10.0,Calm,Calm,-,N/A,,Clear,0,2013-11-01 09:35:00
4:55 AM,35.6,34.5,96,29.67,10.0,Calm,Calm,-,N/A,,Clear,0,2013-11-01 09:55:00
5:15 AM,35.4,34.2,95,29.68,10.0,Calm,Calm,-,N/A,,Clear,0,2013-11-01 10:15:00
5:35 AM,35.4,34.0,94,29.68,10.0,Calm,Calm,-,N/A,,Clear,0,2013-11-01 10:35:00
5:55 AM,35.4,34.2,95,29.69,10.0,Calm,Calm,-,N/A,,Clear,0,2013-11-01 10:55:00
6:15 AM,37.0,35.4,94,29.70,10.0,Calm,Calm,-,N/A,,Scattered Clouds,0,2013-11-01 11:15:00
6:35 AM,37.0,34.7,91,29.70,10.0,Calm,Calm,-,N/A,,Mostly Cloudy,0,2013-11-01 11:35:00
6:55 AM,36.5,35.2,95,29.71,10.0,Calm,Calm,-,N/A,,Mostly Cloudy,0,2013-11-01 11:55:00
7:15 AM,38.3,34.9,87,29.71,10.0,WNW,3.5,-,N/A,,Mostly Cloudy,300,2013-11-01 12:15:00
7:35 AM,40.8,36.1,83,29.72,10.0,WNW,5.8,-,N/A,,Overcast,290,2013-11-01 12:35:00
7:55 AM,42.1,36.5,81,29.72,10.0,WNW,6.9,-,N/A,,Mostly Cloudy,290,2013-11-01 12:55:00
8:15 AM,41.9,36.1,80,29.74,10.0,West,6.9,-,N/A,,Mostly Cloudy,280,2013-11-01 13:15:00
8:35 AM,41.2,36.0,82,29.74,10.0,WNW,5.8,-,N/A,,Mostly Cloudy,290,2013-11-01 13:35:00
8:55 AM,41.9,36.5,81,29.76,10.0,WNW,4.6,-,N/A,,Mostly Cloudy,290,2013-11-01 13:55:00
9:15 AM,42.8,37.0,80,29.76,10.0,WNW,4.6,-,N/A,,Scattered Clouds,300,2013-11-01 14:15:00
9:35 AM,44.6,37.4,76,29.77,10.0,NW,4.6,-,N/A,,Mostly Cloudy,310,2013-11-01 14:35:00
9:55 AM,45.7,38.1,75,29.78,10.0,NW,6.9,-,N/A,,Mostly Cloudy,310,2013-11-01 14:55:00
10:15 AM,47.3,39.2,73,29.78,10.0,WNW,4.6,-,N/A,,Scattered Clouds,300,2013-11-01 15:15:00
10:35 AM,49.3,39.7,70,29.78,10.0,WNW,12.7,16.1,N/A,,Mostly Cloudy,290,2013-11-01 15:35:00
10:55 AM,50.2,40.3,69,29.79,10.0,NW,12.7,-,N/A,,Overcast,310,2013-11-01 15:55:00
11:15 AM,50.2,39.6,67,29.79,10.0,NW,12.7,19.6,N/A,,Mostly Cloudy,310,2013-11-01 16:15:00
11:35 AM,51.3,39.9,65,29.79,10.0,WNW,13.8,17.3,N/A,,Scattered Clouds,300,2013-11-01 16:35:00
11:55 AM,53.1,40.1,61,29.79,10.0,WNW,18.4,21.9,N/A,,Clear,300,2013-11-01 16:55:00
12:15 PM,54.1,39.9,59,29.79,10.0,NW,13.8,21.9,N/A,,Clear,310,2013-11-01 17:15:00
12:35 PM,56.3,39.6,53,29.81,10.0,NW,16.1,24.2,N/A,,Clear,320,2013-11-01 17:35:00
12:55 PM,55.9,37.0,49,29.80,10.0,WNW,18.4,26.5,N/A,,Clear,300,2013-11-01 17:55:00
1:15 PM,56.7,37.0,48,29.81,10.0,WNW,20.7,24.2,N/A,,Clear,300,2013-11-01 18:15:00
1:35 PM,58.1,36.5,44,29.81,10.0,NW,13.8,18.4,N/A,,Clear,320,2013-11-01 18:35:00
1:55 PM,58.1,37.0,45,29.81,10.0,NW,13.8,20.7,N/A,,Scattered Clouds,310,2013-11-01 18:55:00
2:15 PM,57.9,37.2,46,29.81,10.0,WNW,20.7,25.3,N/A,,Scattered Clouds,300,2013-11-01 19:15:00
2:35 PM,58.3,37.0,45,29.80,10.0,NW,16.1,25.3,N/A,,Scattered Clouds,310,2013-11-01 19:35:00
2:55 PM,58.5,35.1,42,29.79,10.0,NW,10.4,24.2,N/A,,Clear,310,2013-11-01 19:55:00
3:15 PM,59.5,34.2,39,29.80,10.0,NW,17.3,24.2,N/A,,Scattered Clouds,310,2013-11-01 20:15:00
4:55 PM,52.9,39.4,60,29.82,10.0,WNW,6.9,-,N/A,,Scattered Clouds,300,2013-11-01 21:55:00
5:15 PM,54.1,37.9,54,29.83,10.0,NNW,18.4,26.5,N/A,Rain,Rain,330,2013-11-01 22:15:00
5:35 PM,46.6,40.3,79,29.87,5.0,NW,17.3,33.4,0.03,Rain-Thunderstorm,Thunderstorms and Rain,310,2013-11-01 22:35:00
5:55 PM,47.3,41.0,79,29.87,10.0,WNW,10.4,-,0.03,,Mostly Cloudy,300,2013-11-01 22:55:00
6:15 PM,46.8,40.5,79,29.87,10.0,WNW,8.1,-,N/A,,Scattered Clouds,300,2013-11-01 23:15:00
6:35 PM,46.9,39.6,76,29.88,10.0,WNW,11.5,-,N/A,,Clear,300,2013-11-01 23:35:00
6:55 PM,45.7,39.4,79,29.89,10.0,WNW,8.1,-,N/A,,Clear,300,2013-11-01 23:55:00
7:15 PM,46.0,39.2,77,29.90,10.0,WNW,9.2,-,N/A,,Clear,300,2013-11-02 00:15:00
7:35 PM,45.5,39.2,79,29.91,10.0,NW,8.1,-,N/A,,Clear,310,2013-11-02 00:35:00
7:55 PM,46.8,38.8,74,29.92,10.0,NW,17.3,25.3,N/A,,Clear,310,2013-11-02 00:55:00
8:15 PM,47.7,37.8,69,29.93,10.0,NW,16.1,25.3,N/A,,Scattered Clouds,310,2013-11-02 01:15:00
8:35 PM,47.3,38.3,71,29.94,10.0,NW,13.8,26.5,N/A,Rain,Light Rain,320,2013-11-02 01:35:00
8:55 PM,46.9,38.3,72,29.94,10.0,NW,9.2,16.1,N/A,,Overcast,320,2013-11-02 01:55:00
9:15 PM,47.3,38.3,71,29.95,10.0,NW,10.4,18.4,N/A,,Overcast,310,2013-11-02 02:15:00
9:35 PM,46.8,38.3,72,29.96,10.0,NW,10.4,19.6,N/A,,Overcast,310,2013-11-02 02:35:00
9:55 PM,46.6,38.3,73,29.96,10.0,NW,15.0,21.9,N/A,,Overcast,310,2013-11-02 02:55:00
10:15 PM,46.8,38.1,72,29.97,10.0,NW,16.1,24.2,N/A,,Overcast,310,2013-11-02 03:15:00
10:35 PM,46.4,38.3,73,29.98,10.0,NW,13.8,20.7,N/A,,Overcast,310,2013-11-02 03:35:00
10:55 PM,46.0,39.0,76,29.99,10.0,WNW,11.5,20.7,N/A,,Overcast,300,2013-11-02 03:55:00
11:15 PM,45.9,39.2,78,29.99,10.0,WNW,15.0,18.4,N/A,,Overcast,300,2013-11-02 04:15:00
11:35 PM,46.2,38.8,75,29.99,10.0,NW,11.5,17.3,N/A,,Overcast,310,2013-11-02 04:35:00
11:55 PM,46.4,38.5,74,29.99,10.0,NW,9.2,-,N/A,,Overcast,310,2013-11-02 04:55:00